Voltar ao catálogo

COSMOS 1823 DEB

AtivoLEO
NORAD 39819·DEBRIS·🇷🇺 Russia

Lançado Feb 20, 1987 de Plesetsk Cosmodrome

Loading…

Próximas Passagens (próximas 24 horas)

TLE

ObsoletoSource: Space-Track

Época: Sep 1, 2026, 23:54 UTC

1 39819U 87020ET  26244.99636718  .00000072  00000-0  63726-3 0  9990
2 39819  73.6762 336.1173 0027138 332.3892  27.5710 12.43301921556507

Acompanhe COSMOS 1823 DEB em tempo real com AllMySat

Download on the App Store